1366848034631,0.830592
1366848094631,0.820700
1366848154631,0.825818
1366848214631,0.824463
1366848274631,0.818369
1366848334631,0.826780
1366848394631,0.824651
1366848454631,0.831096
1366848514631,0.822004
1366848574631,0.821667
1366848634631,0.821005
1366848694631,0.823546
1366848754631,0.824217
1366848814631,0.819392
1366848874631,0.822380
1366848934631,0.826587
1366848994631,0.825644
1366849054631,0.841887
1366849114631,0.848859
1366849174631,0.844946
1366849234631,0.864216
1366849294631,0.875565
1366849354631,0.881383
1366849414631,0.893099
1366849474631,0.892409
1366849534631,0.897753
1366849594631,0.888561
1366849654631,0.891876
1366849714631,0.889766
1366849774631,0.882599
1366849834631,0.878053
1366849894631,0.882776
1366849954631,0.875350
1366850014631,0.885947
1366850074631,0.884651
1366850134631,0.877534
1366850194631,0.887441
1366850254631,0.885336
1366850314631,0.878308
1366850374631,0.880725
1366850434631,0.873857
1366850494631,0.876842
1366850554631,0.867955
1366850614631,0.870103
1366850674631,0.871790
1366850734631,0.871620
1366850794631,0.868201
1366850854631,0.865984
1366850914631,0.866874
1366850974631,0.871408
1366851034631,0.868578
1366851094631,0.860263
1366851154631,0.864572
1366851214631,0.861615
1366851274631,0.863492
1366851334631,0.864512
1366851394631,0.864492
1366851454631,0.869343
1366851514631,0.853481
1366851574631,0.863258
1366851634643,0.858407
1366851694643,0.858367
1366851754643,0.856895
1366851814643,0.853548
1366851874643,0.859274
1366851934643,0.862706
1366851994643,0.856725
1366852054643,0.851307
1366852114643,0.852033
1366852174643,0.854650
1366852234643,0.857621
1366852294643,0.849607
1366852354643,0.851869
1366852414643,0.848029
1366852474643,0.841591
1366852534643,0.843870
1366852594643,0.849636
1366852654643,0.839547
1366852714643,0.846615
1366852774643,0.841844
1366852834643,0.841343
1366852894643,0.836698
1366852954643,0.832173
1366853014643,0.838998
1366853074643,0.832846
1366853134643,0.833224
1366853194643,0.828477
1366853254643,0.823398
1366853314643,0.832377
1366853374643,0.831043
1366853434643,0.821581
1366853494643,0.819538
1366853554643,0.832829
1366853614643,0.829221
1366853674643,0.834371
1366853734643,0.829169
1366853794643,0.827899
1366853854643,0.823073
1366853914643,0.836827
1366853974643,0.835897
1366854034643,0.822932
1366854094643,0.831816
1366854154643,0.827497
1366854214643,0.825420
1366854274643,0.830009
1366854334643,0.823946
1366854394643,0.828427
1366854454643,0.827535
1366854514643,0.824917
1366854574643,0.824057
1366854634643,0.827046
1366854694643,0.827249
1366854754643,0.826867
1366854814643,0.818651
1366854874643,0.825986
1366854934643,0.830662
1366854994643,0.821412
1366855054643,0.826340
1366855114643,0.824723
1366855174643,0.830684
1366855234654,0.843795
1366855294654,0.847572
1366855354654,0.854026
1366855414654,0.853174
1366855474654,0.856304
1366855534654,0.857658
1366855594654,0.862299
1366855654654,0.850305
1366855714654,0.855409
1366855774654,0.858133
1366855834654,0.855480
1366855894654,0.861048
1366855954654,0.860317
1366856014654,0.854454
1366856074654,0.857592
1366856134654,0.862575
1366856194654,0.856511
1366856254654,0.863072
1366856314654,0.872596
1366856374654,0.863047
1366856434654,0.865835
1366856494654,0.870330
1366856554654,0.867751
1366856614654,0.871994
1366856674654,0.862384
1366856734654,0.870236
1366856794654,0.867834
1366856854654,0.862629
1366856914654,0.872695
1366856974654,0.876321
1366857034654,0.873898
1366857094654,0.866185
1366857154654,0.860361
1366857214654,0.870413
1366857274654,0.862656
1366857334654,0.860040
1366857394654,0.870830
1366857454654,0.871685
1366857514654,0.871584
1366857574654,0.871331
1366857634654,0.875390
1366857694654,0.875755
1366857754654,0.873910
1366857814654,0.869745
1366857874654,0.867241
1366857934654,0.867932
1366857994654,0.870232
1366858054654,0.869221
1366858114654,0.871262
1366858174654,0.865141
1366858234654,0.866408
1366858294654,0.875356
1366858354654,0.875078
1366858414654,0.869779
1366858474654,0.875680
1366858534654,0.867496
1366858594654,0.876606
1366858654654,0.879600
1366858714654,0.874810
1366858774654,0.867537
1366858834664,0.870350
1366858894664,0.862912
1366858954664,0.869625
1366859014664,0.866761
1366859074664,0.867357
1366859134665,0.864035
1366859194665,0.859700
1366859254665,0.859887
1366859314665,0.862953
1366859374664,0.854261
1366859434664,0.841649
1366859494664,0.839112
1366859554664,0.842647
1366859614664,0.845417
1366859674664,0.843527
1366859734664,0.843054
1366859794664,0.830325
1366859854664,0.838651
1366859914664,0.836757
1366859974664,0.837380
1366860034664,0.835854
1366860094664,0.836053
1366860154664,0.842559
1366860214664,0.836262
1366860274664,0.838831
1366860334664,0.840457
1366860394664,0.842066
1366860454664,0.835611
1366860514665,0.835907
1366860574665,0.834567
1366860634665,0.840313
1366860694665,0.833115
1366860754664,0.834981
1366860814664,0.839702
1366860874664,0.839358
1366860934664,0.844300
1366860994664,0.845572
1366861054664,0.853041
1366861114664,0.853757
1366861174664,0.864876
1366861234664,0.863467
1366861294664,0.874087
1366861354664,0.872310
1366861414664,0.875721
1366861474664,0.880989
1366861534664,0.880174
1366861594664,0.881424
1366861654664,0.882538
1366861714664,0.884841
1366861774664,0.882003
1366861834665,0.877944
1366861894665,0.876037
1366861954665,0.870637
1366862014665,0.862994
1366862074664,0.861960
1366862134664,0.851940
1366862194664,0.855636
1366862254664,0.843661
1366862314664,0.846560
1366862374664,0.834045
1366862434675,0.840380
1366862494675,0.834866
1366862554675,0.833620
1366862614675,0.829832
1366862674675,0.825945
1366862734675,0.830621
1366862794675,0.832851
1366862854675,0.827638
1366862914675,0.830303
1366862974675,0.823410
1366863034675,0.825328
1366863094675,0.828548
1366863154675,0.832171
1366863214675,0.828733
1366863274675,0.823072
1366863334675,0.829021
1366863394675,0.824644
1366863454675,0.825046
1366863514675,0.819929
1366863574675,0.823948
1366863634675,0.823396
1366863694675,0.825059
1366863754675,0.817998
1366863814675,0.825369
1366863874675,0.819018
1366863934675,0.823743
1366863994675,0.824561
1366864054675,0.820544
1366864114675,0.820470
1366864174675,0.820555
1366864234675,0.818672
1366864294675,0.822788
1366864354675,0.809987
1366864414675,0.817314
1366864474675,0.809723
1366864534675,0.814454
1366864594675,0.810797
1366864654675,0.820561
1366864714675,0.813797
1366864774675,0.817642
1366864834675,0.820697
1366864894675,0.815148
1366864954675,0.812728
1366865014675,0.804787
1366865074675,0.816348
1366865134675,0.809168
1366865194675,0.808683
1366865254675,0.813056
1366865314675,0.822856
1366865374675,0.814436
1366865434675,0.811111
1366865494675,0.815711
1366865554675,0.807011
1366865614675,0.818417
1366865674675,0.811667
1366865734675,0.808219
1366865794675,0.823040
1366865854675,0.816167
1366865914675,0.815954
1366865974675,0.819830
1366866034686,0.817870
1366866094686,0.823621
1366866154686,0.814499
1366866214686,0.822571
1366866274686,0.812038
1366866334686,0.820718
1366866394686,0.816977
1366866454686,0.809643
1366866514686,0.816023
1366866574686,0.821442
1366866634686,0.812761
1366866694686,0.807970
1366866754686,0.803252
1366866814686,0.813383
1366866874686,0.810885
1366866934686,0.815428
1366866994686,0.804664
1366867054686,0.811253
1366867114686,0.809757
1366867174686,0.807353
1366867234686,0.809355
1366867294686,0.801516
1366867354686,0.808077
1366867414686,0.807038
1366867474686,0.808529
1366867534686,0.805442
1366867594686,0.807668
1366867654686,0.809977
1366867714686,0.804122
1366867774686,0.806682
1366867834686,0.803753
1366867894686,0.818006
1366867954686,0.806717
1366868014686,0.813531
1366868074686,0.806864
1366868134686,0.804624
1366868194686,0.808833
1366868254686,0.814006
1366868314686,0.812212
1366868374686,0.801389
1366868434686,0.808352
1366868494686,0.802164
1366868554686,0.806137
1366868614686,0.804462
1366868674686,0.803126
1366868734686,0.803260
1366868794686,0.810569
1366868854686,0.807537
1366868914686,0.815352
1366868974686,0.811896
1366869034686,0.806686
1366869094686,0.816511
1366869154686,0.816647
1366869214686,0.811785
1366869274686,0.810319
1366869334686,0.816276
1366869394686,0.819201
1366869454686,0.816356
1366869514686,0.817743
1366869574686,0.816175
1366869634696,0.813834
1366869694696,0.810684
1366869754696,0.811085
1366869814696,0.812124
1366869874696,0.816174
1366869934696,0.816656
1366869994696,0.821034
1366870054696,0.816849
1366870114696,0.809867
1366870174696,0.808384
1366870234696,0.809542
1366870294696,0.817387
1366870354696,0.814013
1366870414696,0.814956
1366870474696,0.817946
1366870534696,0.819553
1366870594696,0.815176
1366870654696,0.813928
1366870714696,0.814419
1366870774696,0.815257
1366870834696,0.809658
1366870894696,0.817884
1366870954696,0.824896
1366871014696,0.819179
1366871074696,0.824551
1366871134696,0.823776
1366871194696,0.824796
1366871254696,0.837700
1366871314696,0.834104
1366871374696,0.830973
1366871434696,0.831674
1366871494696,0.837237
1366871554696,0.834784
1366871614696,0.830618
1366871674696,0.838857
1366871734696,0.839217
1366871794696,0.830790
1366871854696,0.843781
1366871914696,0.837125
1366871974696,0.838426
1366872034696,0.840461
1366872094696,0.848238
1366872154696,0.849733
1366872214696,0.847168
1366872274696,0.851594
1366872334696,0.848068
1366872394696,0.852979
1366872454696,0.846618
1366872514696,0.845782
1366872574696,0.849411
1366872634696,0.846613
1366872694696,0.847664
1366872754696,0.840888
1366872814696,0.851063
1366872874696,0.851062
1366872934696,0.847036
1366872994696,0.845908
1366873054696,0.844066
1366873114696,0.847644
1366873174696,0.840421
1366873234706,0.844137
1366873294707,0.841876
1366873354707,0.837667
1366873414707,0.835696
1366873474707,0.840194
1366873534707,0.840844
1366873594707,0.835948
1366873654707,0.838791
1366873714707,0.832893
1366873774707,0.835707
1366873834707,0.829324
1366873894707,0.836230
1366873954707,0.830461
1366874014707,0.835583
1366874074707,0.838273
1366874134707,0.830897
1366874194707,0.836237
1366874254706,0.836778
1366874314706,0.838332
1366874374706,0.835334
1366874434706,0.832916
1366874494706,0.837659
1366874554706,0.826618
1366874614707,0.837408
1366874674707,0.828500
1366874734707,0.829865
1366874794707,0.822145
1366874854707,0.831219
1366874914707,0.829868
1366874974707,0.829137
1366875034707,0.828057
1366875094707,0.827217
1366875154707,0.819720
1366875214707,0.838071
1366875274707,0.824239
1366875334707,0.833082
1366875394707,0.822761
1366875454707,0.821050
1366875514707,0.816396
1366875574707,0.816049
1366875634706,0.814161
1366875694706,0.818575
1366875754706,0.820437
1366875814706,0.818613
1366875874706,0.823379
1366875934706,0.811942
1366875994707,0.821353
1366876054707,0.812679
1366876114707,0.817797
1366876174707,0.820452
1366876234707,0.819066
1366876294707,0.826943
1366876354707,0.817943
1366876414707,0.811840
1366876474707,0.821717
1366876534707,0.827615
1366876594707,0.830903
1366876654707,0.830559
1366876714707,0.829405
1366876774707,0.823740
1366876834717,0.820330
1366876894717,0.822004
1366876954717,0.818248
1366877014717,0.821798
1366877074717,0.831099
1366877134717,0.826271
1366877194717,0.817620
1366877254717,0.822071
1366877314717,0.821753
1366877374717,0.822267
1366877434717,0.818249
1366877494717,0.813690
1366877554717,0.816131
1366877614717,0.817775
1366877674717,0.815001
1366877734717,0.816858
1366877794717,0.818248
1366877854717,0.817390
1366877914717,0.810845
1366877974717,0.813966
1366878034717,0.816694
1366878094717,0.814421
1366878154717,0.815074
1366878214717,0.809703
1366878274717,0.814168
1366878334717,0.815553
1366878394717,0.811163
1366878454717,0.814425
1366878514717,0.819375
1366878574717,0.826318
1366878634717,0.831301
1366878694717,0.837335
1366878754717,0.846109
1366878814717,0.861097
1366878874717,0.866574
1366878934717,0.887690
1366878994717,0.878201
1366879054717,0.889983
1366879114717,0.883167
1366879174717,0.891837
1366879234717,0.878643
1366879294717,0.884554
1366879354717,0.884352
1366879414717,0.881055
1366879474717,0.876706
1366879534717,0.876836
1366879594717,0.871802
1366879654717,0.871707
1366879714717,0.868207
1366879774717,0.867392
1366879834717,0.862525
1366879894717,0.869268
1366879954717,0.870044
1366880014717,0.876708
1366880074717,0.875132
1366880134717,0.881091
1366880194717,0.874776
1366880254717,0.884300
1366880314717,0.878429
1366880374717,0.893105
1366880434727,0.888413
1366880494727,0.889322
1366880554727,0.890788
1366880614727,0.888472
1366880674727,0.900604
1366880734727,0.894192
1366880794727,0.895322
1366880854727,0.889843
1366880914727,0.887439
1366880974727,0.894305
1366881034727,0.884836
1366881094727,0.881182
1366881154727,0.887461
1366881214727,0.890174
1366881274727,0.886967
1366881334727,0.882483
1366881394727,0.882918
1366881454727,0.887688
1366881514727,0.877531
1366881574727,0.888497
1366881634727,0.883735
1366881694727,0.885809
1366881754727,0.886330
1366881814727,0.889658
1366881874727,0.884335
1366881934727,0.878899
1366881994727,0.884741
1366882054727,0.881681
1366882114727,0.877702
1366882174727,0.882320
1366882234727,0.882832
1366882294727,0.873630
1366882354727,0.872573
1366882414727,0.869576
1366882474727,0.875582
1366882534727,0.874146
1366882594727,0.875988
1366882654727,0.870245
1366882714727,0.864524
1366882774727,0.870005
1366882834727,0.862379
1366882894727,0.871150
1366882954727,0.873544
1366883014727,0.879653
1366883074727,0.878527
1366883134727,0.880052
1366883194727,0.893031
1366883254727,0.885555
1366883314727,0.890330
1366883374727,0.894518
1366883434727,0.889771
1366883494727,0.893866
1366883554727,0.895479
1366883614727,0.886309
1366883674727,0.888175
1366883734727,0.889891
1366883794727,0.879740
1366883854727,0.886178
1366883914727,0.884512
1366883974727,0.884476
1366884034737,0.869295
1366884094737,0.872334
1366884154737,0.872848
1366884214737,0.867521
1366884274737,0.867135
1366884334737,0.868531
1366884394737,0.876440
1366884454737,0.863671
1366884514737,0.862223
1366884574737,0.865377
1366884634737,0.861166
1366884694737,0.857281
1366884754737,0.860129
1366884814737,0.862496
1366884874737,0.859598
1366884934737,0.861507
1366884994737,0.862461
1366885054737,0.858202
1366885114737,0.862377
1366885174737,0.857109
1366885234737,0.855051
1366885294737,0.857618
1366885354737,0.849294
1366885414737,0.859750
1366885474737,0.865941
1366885534737,0.863137
1366885594737,0.861643
1366885654737,0.857465
1366885714737,0.855394
1366885774737,0.869251
1366885834737,0.860355
1366885894737,0.863101
1366885954737,0.857054
1366886014737,0.865621
1366886074737,0.853651
1366886134737,0.870162
1366886194737,0.859165
1366886254737,0.853411
1366886314737,0.852644
1366886374737,0.855164
1366886434737,0.858525
1366886494737,0.866534
1366886554737,0.861086
1366886614737,0.862498
1366886674737,0.860835
1366886734737,0.868704
1366886794737,0.867601
1366886854737,0.883092
1366886914737,0.889147
1366886974737,0.903646
1366887034737,0.931659
1366887094737,0.941972
1366887154737,0.943021
1366887214737,0.951451
1366887274737,0.952321
1366887334737,0.962191
1366887394737,0.960344
1366887454737,0.955072
1366887514737,0.955966
1366887574737,0.961565
1366887634747,0.966349
1366887694747,0.973863
1366887754747,0.969686
1366887814747,0.964282
1366887874747,0.978429
1366887934747,0.966449
1366887994747,0.964382
1366888054747,0.968481
1366888114747,0.962512
1366888174747,0.961068
1366888234747,0.960438
1366888294747,0.952870
1366888354747,0.947451
1366888414747,0.949217
1366888474747,0.951467
1366888534747,0.935842
1366888594747,0.934020
1366888654747,0.931387
1366888714747,0.931305
1366888774747,0.921971
1366888834747,0.908799
1366888894747,0.909537
1366888954747,0.905012
1366889014747,0.903341
1366889074747,0.918822
1366889134747,0.903153
1366889194747,0.904204
1366889254747,0.897130
1366889314747,0.909606
1366889374747,0.903623
1366889434747,0.900618
1366889494747,0.899846
1366889554747,0.890827
1366889614747,0.891063
1366889674747,0.895746
1366889734747,0.891376
1366889794747,0.884336
1366889854747,0.884289
1366889914747,0.884338
1366889974747,0.886020
1366890034747,0.879511
1366890094747,0.883115
1366890154747,0.887201
1366890214747,0.882255
1366890274747,0.889652
1366890334747,0.889163
1366890394747,0.886263
1366890454747,0.887611
1366890514747,0.892773
1366890574747,0.899684
1366890634747,0.902408
1366890694747,0.907912
1366890754747,0.909325
1366890814747,0.908818
1366890874747,0.904564
1366890934747,0.901767
1366890994747,0.896511
1366891054747,0.888388
1366891114747,0.889839
1366891174747,0.888286
1366891234757,0.888034
1366891294757,0.877110
1366891354757,0.874490
1366891414757,0.871052
1366891474757,0.875859
1366891534757,0.874058
1366891594757,0.858783
1366891654757,0.861588
1366891714757,0.862495
1366891774757,0.870293
1366891834757,0.862935
1366891894757,0.857265
1366891954757,0.868774
1366892014757,0.862824
1366892074757,0.865043
1366892134757,0.859976
1366892194757,0.860984
1366892254757,0.858147
1366892314757,0.852941
1366892374757,0.850781
1366892434757,0.849102
1366892494757,0.856102
1366892554757,0.853083
1366892614757,0.851613
1366892674757,0.848868
1366892734757,0.850127
1366892794757,0.854360
1366892854757,0.845516
1366892914757,0.844060
1366892974757,0.850082
1366893034757,0.837905
1366893094757,0.840134
1366893154757,0.844155
1366893214757,0.843259
1366893274757,0.834831
1366893334757,0.838285
1366893394757,0.845249
1366893454757,0.841215
1366893514757,0.843082
1366893574757,0.834345
1366893634757,0.837933
1366893694757,0.837821
1366893754757,0.841988
1366893814757,0.840136
1366893874757,0.840322
1366893934757,0.839721
1366893994757,0.834186
1366894054757,0.842707
1366894114757,0.838594
1366894174757,0.841628
1366894234757,0.840584
1366894294757,0.843343
1366894354757,0.836295
1366894414757,0.850025
1366894474757,0.839659
1366894534757,0.836708
1366894594757,0.839808
1366894654757,0.837193
1366894714757,0.844460
1366894774757,0.844759
1366894834767,0.840699
1366894894767,0.844164
1366894954767,0.842243
1366895014767,0.836677
1366895074767,0.838508
1366895134767,0.830618
1366895194767,0.836070
1366895254767,0.843356
1366895314767,0.833126
1366895374767,0.840413
1366895434767,0.848500
1366895494767,0.845295
1366895554767,0.841856
1366895614767,0.846117
1366895674767,0.848564
1366895734767,0.847029
1366895794767,0.845234
1366895854767,0.844764
1366895914767,0.844813
1366895974767,0.840619
1366896034767,0.845119
1366896094767,0.840882
1366896154767,0.849097
1366896214767,0.845769
1366896274767,0.839201
1366896334767,0.844228
1366896394767,0.852287
1366896454767,0.847034
1366896514767,0.844388
1366896574767,0.842970
1366896634767,0.833843
1366896694767,0.843633
1366896754767,0.839504
1366896814767,0.842506
1366896874767,0.846976
1366896934767,0.845355
1366896994767,0.840282
1366897054767,0.839191
1366897114767,0.839667
1366897174767,0.843001
1366897234767,0.838312
1366897294767,0.841904
1366897354767,0.838716
1366897414767,0.847676
1366897474767,0.838419
1366897534767,0.833061
1366897594767,0.842827
1366897654767,0.843724
1366897714767,0.841487
1366897774767,0.841724
1366897834767,0.837189
1366897894767,0.832026
1366897954767,0.838330
1366898014767,0.842289
1366898074767,0.834960
1366898134767,0.845870
1366898194767,0.841123
1366898254767,0.834026
1366898314767,0.839155
1366898374767,0.838206
1366898434777,0.844468
1366898494777,0.846183
1366898554777,0.836026
1366898614777,0.841219
1366898674777,0.843352
1366898734777,0.842723
1366898794777,0.845792
1366898854777,0.839503
1366898914777,0.843879
1366898974777,0.839765
1366899034777,0.839661
1366899094777,0.844610
1366899154777,0.837537
1366899214777,0.832511
1366899274777,0.832528
1366899334777,0.837259
1366899394777,0.833594
1366899454777,0.832128
1366899514777,0.828889
1366899574777,0.831394
1366899634777,0.830353
1366899694777,0.827003
1366899754777,0.826105
1366899814777,0.829396
1366899874777,0.837696
1366899934777,0.831499
1366899994777,0.836671
1366900054777,0.842419
1366900114777,0.833884
1366900174777,0.842322
1366900234777,0.835963
1366900294777,0.842590
1366900354777,0.847708
1366900414777,0.841874
1366900474777,0.844664
1366900534777,0.844601
1366900594777,0.852343
1366900654777,0.846800
1366900714777,0.845118
1366900774777,0.839441
1366900834777,0.851585
1366900894777,0.851769
1366900954777,0.854140
1366901014777,0.849540
1366901074777,0.856631
1366901134777,0.841904
1366901194777,0.848099
1366901254777,0.853539
1366901314777,0.852974
1366901374777,0.858858
1366901434777,0.852511
1366901494777,0.846806
1366901554777,0.840757
1366901614777,0.833834
1366901674777,0.847095
1366901734777,0.844559
1366901794777,0.844667
1366901854777,0.834677
1366901914777,0.844986
1366901974777,0.839737
1366902034787,0.837472
1366902094787,0.834972
1366902154787,0.838359
1366902214787,0.847014
1366902274787,0.841167
1366902334787,0.839378
1366902394787,0.831443
1366902454787,0.833550
1366902514787,0.839070
1366902574787,0.834403
1366902634787,0.830863
1366902694787,0.831285
1366902754787,0.833494
1366902814787,0.836046
1366902874787,0.831166
1366902934787,0.827568
1366902994787,0.833314
1366903054787,0.831696
1366903114787,0.835318
1366903174787,0.830068
1366903234787,0.834639
1366903294787,0.834113
1366903354787,0.827184
1366903414787,0.828499
1366903474787,0.834976
1366903534787,0.840950
1366903594787,0.834830
1366903654787,0.842590
1366903714787,0.844505
1366903774787,0.840935
1366903834787,0.838742
1366903894787,0.846275
1366903954787,0.843850
1366904014787,0.849428
1366904074787,0.852143
1366904134787,0.845071
1366904194787,0.851268
1366904254787,0.840439
1366904314787,0.840981
1366904374787,0.841310
1366904434787,0.846943
1366904494787,0.852512
1366904554787,0.837567
1366904614787,0.847355
1366904674787,0.845412
1366904734787,0.842199
1366904794787,0.845424
1366904854787,0.845648
1366904914787,0.844645
1366904974787,0.836506
1366905034787,0.843025
1366905094787,0.846303
1366905154787,0.841049
1366905214787,0.843433
1366905274787,0.838829
1366905334787,0.841248
1366905394787,0.845840
1366905454787,0.841557
1366905514787,0.842119
1366905574787,0.846895
1366905634796,0.849667
1366905694796,0.848414
1366905754796,0.852506
1366905814796,0.842058
1366905874796,0.840054
1366905934796,0.846702
1366905994796,0.835819
1366906054796,0.845753
1366906114796,0.841539
1366906174796,0.846386
1366906234796,0.840001
1366906294796,0.837137
1366906354796,0.850929
1366906414796,0.840144
1366906474796,0.849454
1366906534796,0.842396
1366906594796,0.848989
1366906654796,0.847075
1366906714796,0.839753
1366906774796,0.849390
1366906834796,0.846120
1366906894796,0.853791
1366906954796,0.857053
1366907014796,0.858526
1366907074796,0.868520
1366907134796,0.870758
1366907194796,0.863352
1366907254796,0.861114
1366907314796,0.856179
1366907374796,0.867680
1366907434796,0.864693
1366907494796,0.865198
1366907554796,0.858530
1366907614796,0.861754
1366907674796,0.862115
1366907734796,0.857788
1366907794796,0.862000
1366907854796,0.867826
1366907914796,0.860554
1366907974796,0.855157
1366908034796,0.862643
1366908094796,0.857506
1366908154796,0.855134
1366908214796,0.849151
1366908274796,0.855251
1366908334796,0.857439
1366908394796,0.864526
1366908454796,0.848253
1366908514796,0.855626
1366908574796,0.857742
1366908634796,0.849236
1366908694796,0.847929
1366908754796,0.858438
1366908814796,0.851608
1366908874796,0.845426
1366908934796,0.851134
1366908994796,0.855277
1366909054796,0.850235
1366909114796,0.843717
1366909174796,0.854274
1366909234806,0.847971
1366909294806,0.843988
1366909354806,0.849515
1366909414806,0.847759
1366909474806,0.845336
1366909534806,0.842588
1366909594806,0.852931
1366909654806,0.856598
1366909714806,0.843679
1366909774806,0.855388
1366909834806,0.850082
1366909894806,0.856752
1366909954806,0.867090
1366910014806,0.873318
1366910074806,0.875436
1366910134806,0.884325
1366910194806,0.895000
1366910254806,0.898154
1366910314806,0.921811
1366910374806,0.923881
1366910434806,0.920623
1366910494806,0.918148
1366910554806,0.913807